Regional Weather Roundup
Issued by NWS

Home | Current Version | Previous Version | Text Only | Print | Product List | Glossary Off
Versions: 1 2 3 4 5 6 7 8 9 10 11 12 13 14 15 16 17 18 19 20 21 22 23 24 25 26 27 28 29 30 31 32 33 34 35 36 37 38 39 40 41 42 43 44 45 46 47 48 49 50

000
ASUS45 KPSR 200110
RWRAZ

ARIZONA REGIONAL HOURLY WEATHER ROUNDUP
NATIONAL WEATHER SERVICE PHOENIX AZ
600 PM MST TUE AUG 19 2014

NOTE: FAIR INDICATES FEW OR NO CLOUDS BELOW 12,000 FEET WITH NO
SIGNIFICANT WEATHER AND/OR OBSTRUCTIONS TO VISIBILITY.

AZZ001>003-036-200200-
NORTHWEST ARIZONA

CITY           SKY/WX    TMP DP  RH WIND       PRES   REMARKS
BULLHEAD CITY  PTSUNNY   77  64  65 NE12      29.71F
KINGMAN        PTSUNNY   72  52  49 SE15      29.91F
$$

AZZ004>008-015-016-018-200200-
NORTH CENTRAL ARIZONA

CITY           SKY/WX    TMP DP  RH WIND       PRES   REMARKS
GRAND CANYON   PTSUNNY   66  48  52 SW10      30.08R
WILLIAMS       CLOUDY    55  50  82 W20G26    30.21R
PRESCOTT       PTSUNNY   68  54  60 N8        30.06R
FLAGSTAFF      CLOUDY    59  55  87 SW10      30.14R
PAYSON         PTSUNNY   66  61  82 VRB5      30.08S
PAGE           MOSUNNY   73  59  61 NE5       29.92F
$$

AZZ009>014-017-200200-
NORTHEAST ARIZONA

CITY           SKY/WX    TMP DP  RH WIND       PRES   REMARKS
WINSLOW        PTSUNNY   74  54  49 W7        30.00F
SAINT JOHNS    CLOUDY    68  53  58 SW10      30.07S
WINDOW ROCK    CLOUDY    67  52  58 SW9       30.12R
SHOW LOW       CLOUDY    57  54  88 S13       30.15F
$$

AZZ023-200200-
GREATER PHOENIX AREA

CITY           SKY/WX    TMP DP  RH WIND       PRES   REMARKS
PHOENIX        PTSUNNY   88  64  44 NE16      29.78R
BUCKEYE          N/A     88  64  45 NE12G21   29.76R
GLENDALE       PTSUNNY   86  64  48 N12G17    29.79S
LUKE AFB       NOT AVBL
DEER VALLEY    PTSUNNY   80  62  54 NE12G25   29.81R
SCOTTSDALE     PTSUNNY   86  65  49 N10       29.84R
MESA-FALCON    PTSUNNY   86  64  48 N14       29.79F
MESA-GATEWAY   PTSUNNY   88  61  40 E8        29.82S
CHANDLER       PTSUNNY   88  66  48 NE22      29.79S
$$

AZZ027-028-200200-
SOUTHWEST MARICOPA COUNTY AND PINAL COUNTY

CITY           SKY/WX    TMP DP  RH WIND       PRES   REMARKS
CASA GRANDE    SUNNY     90  61  37 NE15      29.80S
GILA BEND      PTCLDY    99  50  19 SW13      29.72S
$$

AZZ503-504-507>509-200200-
SOUTHEAST ARIZONA

CITY           SKY/WX    TMP DP  RH WIND       PRES   REMARKS
TUCSON         LGT RAIN  78  65  63 NE5       29.89R
DAVIS-MONTHAN  RAIN      78  67  68 SE6       29.88R
RYAN FIELD       N/A     79  70  73 E13       29.88R
NOGALES        CLOUDY    71  60  68 S12       30.00R
SIERRA VISTA   TSTM      70  64  83 SE12      30.05S
DOUGLAS        LGT RAIN  66  62  87 CALM      30.03R
SAFFORD        CLOUDY    68  63  84 W12       29.97F
$$

AZZ020-021-025-026-031-200200-
SOUTHWEST ARIZONA

CITY           SKY/WX    TMP DP  RH WIND       PRES   REMARKS
YUMA           MOSUNNY  103  52  18 S13       29.64F HX 100
$$

CAZ031-033-041-043-047-048-061-200200-
SOUTHERN CALIFORNIA

CITY           SKY/WX    TMP DP  RH WIND       PRES   REMARKS
DOWNTOWN L.A.  MOSUNNY   74  62  66 VRB3      29.84S
L.A. AIRPORT   PTSUNNY   70  61  73 W12       29.85F
SAN DIEGO      PTSUNNY   73  59  61 W7        29.88S
BURBANK        SUNNY     74  60  61 S9        29.84S
ONTARIO        PTSUNNY   78  61  55 W12       29.84R
RIVERSIDE      PTSUNNY   77  61  57 W8G21     29.83R
PALM SPRINGS   SUNNY     99  46  16 NW14G30   29.68S
EL CENTRO NAS  MOSUNNY  102  50  17 W26       29.63S
IMPERIAL       SUNNY    101  51  18 W17G24    29.61S
BLYTHE         SUNNY    103  41  12 SW15      29.64S
NEEDLES        MOSUNNY   89  57  33 N6        29.71F
$$

NVZ020-UTZ003-200200-
SOUTHERN NEVADA-UTAH

CITY           SKY/WX    TMP DP  RH WIND       PRES   REMARKS
LAS VEGAS      FAIR      89  55  31 SE7       29.71F
SALT LAKE CITY PTSUNNY   72  55  55 SE8       29.87R
$$

NMZ009-TXZ055-200200-
NEW MEXICO-WEST TEXAS

CITY           SKY/WX    TMP DP  RH WIND       PRES   REMARKS
ALBUQUERQUE    MOCLDY    82  46  28 W21G26    29.95S
EL PASO        CLOUDY    79  58  48 W13G22    29.91R
$$


........................KEY........................
SKY/WX - SKY CONDITION/WEATHER
TMP    - TEMPERATURE IN FAHRENHEIT
DP     - DEW POINT IN FAHRENHEIT
RH     - RELATIVE HUMIDITY IN PERCENT
WIND   - DIRECTION AND SPEED IN MILES PER HOUR (MPH)
VRB    - VARIABLE WIND DIRECTION
PRES   - MEAN SEA LEVEL PRESSURE IN INCHES OF MERCURY
         F - FALLING PRESSURE   R - RISING PRESSURE
         S - STEADY PRESSURE
VSB    - VISIBILITY IN MILES
HX     - HEAT INDEX IN FAHRENHEIT
WCI    - WIND CHILL INDEX IN FAHRENHEIT
TC     - TEMPERATURE IN CELSIUS WHICH IS ALSO KNOWN AS
         TEMPERATURE IN CENTIGRADE
AFB    - AIR FORCE BASE
         LUKE AFB IS LUKE AIR FORCE BASE
         DAVIS-MONTHAN IS DAVIS-MONTHAN AIR FORCE BASE
NAS    - NAVAL AIR STATION
         EL CENTRO NAS IS EL CENTRO NAVAL AIR STATION
N/A    - NOT AVAILABLE



USA.gov is the U.S. government's official web portal to all federal, state and local government web resources and services.